This is the latest recevied weather packets stored in our database for station/object W9GWP. If no packets are shown the sender has not sent any weather packets the latest 10 day(s).
| Time | Temp. | Humidity | Pressure | Rain* | Wind** | Luminosity | Snow |
|---|---|---|---|---|---|---|---|
| 1778071663 | 8.89° C | 63% | 1042.2 hPa | 0 mm | - | 146 W/m² | - |
| 1778070762 | 7.78° C | 68% | 1042.2 hPa | 0 mm | - | 81 W/m² | - |
| 1778069859 | 7.78° C | 72% | 1041.9 hPa | 0 mm | - | 64 W/m² | - |
| 1778068957 | 6.11° C | 78% | 1041.6 hPa | 0 mm | - | 48 W/m² | - |
| 1778068056 | 5° C | 87% | 1041.7 hPa | 0 mm | - | 35 W/m² | - |
| 1778067154 | 3.33° C | 92% | 1041.7 hPa | 0 mm | - | 28 W/m² | - |
| 1778066251 | 2.22° C | 93% | 1041.6 hPa | 0 mm | - | 16 W/m² | - |
| 1778065350 | 1.67° C | 93% | 1041.5 hPa | 0 mm | - | 6 W/m² | - |
| 1778064447 | 1.67° C | 93% | 1041.3 hPa | 0 mm | - | 1 W/m² | - |
| 1778063544 | 1.67° C | 92% | 1041.1 hPa | 0 mm | - | 0 W/m² | - |
| 1778062642 | 1.67° C | 92% | 1040.9 hPa | 0 mm | - | 0 W/m² | - |
| 1778061740 | 2.22° C | 91% | 1040.8 hPa | 0 mm | - | 0 W/m² | - |
| 1778060837 | 2.22° C | 91% | 1040.9 hPa | 0 mm | - | 0 W/m² | - |
| 1778059936 | 2.78° C | 90% | 1041 hPa | 0 mm | - | 0 W/m² | - |
| 1778059035 | 2.22° C | 89% | 1041 hPa | 0 mm | - | 0 W/m² | - |
| 1778058132 | 2.22° C | 87% | 1041.1 hPa | 0 mm | - | 0 W/m² | - |
| 1778057228 | 2.22° C | 86% | 1041 hPa | 0 mm | - | 0 W/m² | - |
| 1778056325 | 2.78° C | 83% | 1040.9 hPa | 0 mm | - | 0 W/m² | - |
| 1778055420 | 2.78° C | 81% | 1040.6 hPa | 0 mm | - | 0 W/m² | - |
| 1778054518 | 2.78° C | 80% | 1040.6 hPa | 0 mm | - | 0 W/m² | - |
| 1778053616 | 2.78° C | 77% | 1040.5 hPa | 0 mm | - | 0 W/m² | - |
| 1778052714 | 3.33° C | 75% | 1040.5 hPa | 0 mm | - | 0 W/m² | - |
| 1778051811 | 3.89° C | 72% | 1040.2 hPa | 0 mm | - | 0 W/m² | - |
| 1778050908 | 4.44° C | 70% | 1040.4 hPa | 0 mm | - | 0 W/m² | - |
| 1778050006 | 5° C | 67% | 1040.6 hPa | 0 mm | - | 0 W/m² | - |
* Rain latest hour (hover to see other rain measurements)
** Current wind speed in m/s (hover to see current wind gust speed)